Location: Oshawa
(43.9000°N, 78.8670°W)
Time: 12:32:28
(UTC-04:00)

CARTOSAT-1 - Visible Passes

Search period start: 20 August 2014 00:00
Search period end: 30 August 2014 00:00
Orbit: 616 x 620 km, 97.8° (Epoch: 20 August)

Date Brightness Start Highest point End Pass type
(mag) Time Alt. Az. Time Alt. Az. Time Alt. Az.
20 Aug 4.9 22:16:33 25° ENE 22:16:33 25° ENE 22:20:03 10° NNE visible
20 Aug 5.3 23:53:41 27° WNW 23:53:41 27° WNW 23:56:23 10° NNW visible
21 Aug 4.5 22:33:35 35° ENE 22:33:35 35° ENE 22:37:08 10° N visible
22 Aug 5.9 00:10:44 19° WNW 00:10:44 19° WNW 00:12:43 10° NW visible
22 Aug 4.2 22:50:38 46° NE 22:50:38 46° NE 22:54:05 10° N visible
23 Aug 6.3 00:27:46 13° WNW 00:27:46 13° WNW 00:28:43 10° NW visible
23 Aug 4.3 23:07:41 50° N 23:07:41 50° N 23:10:56 10° N visible
24 Aug 5.6 21:47:35 13° ENE 21:47:49 13° ENE 21:49:53 10° NNE visible
24 Aug 4.7 23:24:44 41° NW 23:24:44 41° NW 23:27:40 10° NNW visible
25 Aug 5.3 22:04:38 19° ENE 22:04:38 19° ENE 22:07:26 10° NNE visible
25 Aug 5.3 23:41:46 30° NW 23:41:46 30° NW 23:44:17 10° NNW visible
26 Aug 5.0 22:21:41 26° NE 22:21:41 26° NE 22:24:39 10° N visible
26 Aug 5.8 23:58:49 21° NW 23:58:49 21° NW 00:00:46 10° NW visible
27 Aug 4.7 22:38:44 33° NE 22:38:44 33° NE 22:41:41 10° N visible
28 Aug 6.2 00:15:52 15° WNW 00:15:52 15° WNW 00:17:03 10° NW visible
28 Aug 4.7 22:55:47 38° NNE 22:55:47 38° NNE 22:58:36 10° N visible
29 Aug 5.9 21:35:42 10° ENE 21:35:43 10° ENE 21:36:01 10° NE visible
29 Aug 5.0 23:12:50 36° NNW 23:12:50 36° NNW 23:15:25 10° NNW visible
